This is the latest recevied weather packets stored in our database for station/object KI4HRG. If no packets are shown the sender has not sent any weather packets the latest 10 day(s).
| Time | Temp. | Humidity | Pressure | Rain* | Wind** | Luminosity | Snow |
|---|---|---|---|---|---|---|---|
| 1787697513 | 32.78° C | 51% | 1015.3 hPa | 0 mm | - | 50 W/m² | - |
| 1787697208 | 32.78° C | 50% | 1015.3 hPa | 0 mm | - | 55 W/m² | - |
| 1787696904 | 32.78° C | 50% | 1015.2 hPa | 0 mm | - | 62 W/m² | - |
| 1787696599 | 32.78° C | 50% | 1015.1 hPa | 0 mm | - | 61 W/m² | - |
| 1787696294 | 32.78° C | 49% | 1015.3 hPa | 0 mm | - | 63 W/m² | - |
| 1787695989 | 32.78° C | 49% | 1015.4 hPa | 0 mm | - | 63 W/m² | - |
| 1787695683 | 33.33° C | 49% | 1015.3 hPa | 0 mm | - | 67 W/m² | - |
| 1787695380 | 32.78° C | 49% | 1015.3 hPa | 0 mm | - | 71 W/m² | - |
| 1787695079 | 33.33° C | 48% | 1015.3 hPa | 0 mm | - | 75 W/m² | - |
| 1787694772 | 33.89° C | 47% | 1015.5 hPa | 0 mm | - | 109 W/m² | - |
| 1787694470 | 33.33° C | 47% | 1015.3 hPa | 0 mm | - | 240 W/m² | - |
| 1787694169 | 33.89° C | 47% | 1015.2 hPa | 0 mm | - | 254 W/m² | - |
| 1787693864 | 33.89° C | 47% | 1015.4 hPa | 0 mm | - | 218 W/m² | - |
| 1787693560 | 33.89° C | 47% | 1015.4 hPa | 0 mm | - | 318 W/m² | - |
| 1787693256 | 33.89° C | 47% | 1015.4 hPa | 0 mm | - | 347 W/m² | - |
| 1787692952 | 33.89° C | 47% | 1015.5 hPa | 0 mm | - | 322 W/m² | - |
| 1787692647 | 33.89° C | 47% | 1015.4 hPa | 0 mm | - | 375 W/m² | - |
| 1787692342 | 34.44° C | 46% | 1015.6 hPa | 0 mm | - | 391 W/m² | - |
| 1787692037 | 34.44° C | 47% | 1015.7 hPa | 0 mm | - | 424 W/m² | - |
| 1787691736 | 34.44° C | 45% | 1015.5 hPa | 0 mm | - | 391 W/m² | - |
| 1787691434 | 33.89° C | 46% | 1015.5 hPa | 0 mm | - | 419 W/m² | - |
| 1787691128 | 35° C | 45% | 1015.6 hPa | 0 mm | - | 433 W/m² | - |
| 1787690824 | 33.89° C | 46% | 1015.6 hPa | 0 mm | - | 496 W/m² | - |
| 1787690518 | 33.89° C | 45% | 1015.8 hPa | 0 mm | - | 516 W/m² | - |
| 1787690214 | 35° C | 44% | 1015.7 hPa | 0 mm | - | 559 W/m² | - |
* Rain latest hour (hover to see other rain measurements)
** Current wind speed in m/s (hover to see current wind gust speed)